カタログに戻る

STARLINK-5506

運用中通信VLEO
NORAD 55651·PAYLOAD·🇺🇸 United States

打ち上げ Feb 17, 2023 から Vandenberg Space Force Base

Loading…

次のパス (今後24時間)

TLE

最新Source: CelesTrak SupGP

元期: Sep 14, 2026, 22:21 UTC

1 55651C 23021Z   26257.93173611  .00022018  00000+0  18451-2 0  2573
2 55651  70.0013  67.3968 0003015 273.8479 167.2891 14.98322618    12

AllMySatでSTARLINK-5506をリアルタイム追跡

Download on the App Store